Regional Weather Roundup
Issued by NWS

Home | Current Version | Previous Version | Graphics & Text | Print | Product List | Glossary Off
Versions: 1 2 3 4 5 6 7 8 9 10 11 12 13 14 15 16 17 18 19 20 21 22 23 24 25 26 27 28 29 30 31 32 33 34 35 36 37 38 39 40 41 42 43 44 45 46 47 48 49 50

000
ASUS43 KTOP 262059
RWRKS

WEATHER ROUNDUP FOR KANSAS
NATIONAL WEATHER SERVICE GOODLAND KS
400 PM CDT TUE MAY 26 2015

NOTE:  "FAIR" INDICATES FEW OR NO CLOUDS BELOW 12,000 FEET WITH NO
SIGNIFICANT WEATHER AND/OR OBSTRUCTIONS TO VISIBILITY.

KSZ001>006-013>018-027>032-041>047-262200-
NORTHWEST KANSAS

CITY           SKY/WX    TMP DP  RH WIND       PRES   REMARKS
GOODLAND       CLOUDY    70  50  49 N10       30.00S
HAYS           MOSUNNY   77  54  44 NW8       29.95S
HILL CITY      MOSUNNY   74  54  49 N8          N/A
RUSSELL        MOSUNNY   75  55  49 W13       29.93S
$$

KSZ061>065-074>080-084>089-262200-
SOUTHWEST KANSAS

CITY           SKY/WX    TMP DP  RH WIND       PRES   REMARKS
DODGE CITY     PTSUNNY   76  49  38 CALM      29.97S
ELKHART          N/A     78  53  41 W1          N/A
GARDEN CITY    MOSUNNY   74  50  42 VRB5      29.98S
GREAT BEND     MOSUNNY   75  57  53 NW9       29.94S
LIBERAL        MOSUNNY   75  54  46 N6        30.00S
$$

KSZ066>073-081>083-090>101-262200-
SOUTHEAST KANSAS

CITY           SKY/WX    TMP DP  RH WIND       PRES   REMARKS
CHANUTE        PTSUNNY   80  62  54 SW15      29.93F
COFFEYVILLE    MOSUNNY   77  65  66 S9        29.94F
HUTCHINSON     MOSUNNY   79  55  43 VRB5      29.93F
NEWTON         PTSUNNY   79  55  44 SW7       29.95F
PARSONS        MOSUNNY   78  66  66 S12G18    29.95F
WICHITA INTL   MOSUNNY   80  57  45 MISG      29.92F
WICHITA JABRA  MOSUNNY   79  57  46 NW7       29.93F
WINFIELD       MOSUNNY   79  58  48 W6        29.93F
$$

KSZ007>012-019>026-033>040-048>060-102>105-262200-
NORTHEAST KANSAS

CITY           SKY/WX    TMP DP  RH WIND       PRES   REMARKS
CONCORDIA      PTSUNNY   75  54  47 W14G23    29.91R
EMPORIA        MOSUNNY   79  56  45 W12G22    29.92F
LAWRENCE       MOSUNNY   79  58  48 W18       29.89F
MANHATTAN      PTSUNNY   75  58  55 W6        29.91R
OLATHE IND     PTSUNNY   78  59  51 W16G24    29.90F
OLATHE EXE     MOSUNNY   76  60  57 W14G25    29.89S
SALINA         MOSUNNY   78  57  48 NW9       29.93R
TOPEKA BILLARD MOSUNNY   77  60  55 W16       29.89S
TOPEKA FORBES  MOSUNNY   79  58  48 W16G26    29.90S
$$



USA.gov is the U.S. government's official web portal to all federal, state and local government web resources and services.